Welcome to the New NWS' Forecast!
Most changes are behind the scenes, but click here for differences you might notice.

Regional Weather Roundup (RWR)

Issued by National Weather Service (NWS)

                            
589 
ASUS46 KSEW 211710
RWRWA 

WASHINGTON REGIONAL WEATHER ROUNDUP
NATIONAL WEATHER SERVICE SEATTLE WA
1000 AM PDT FRI SEP 21 2018

NOTE:"FAIR" INDICATES FEW OR NO CLOUDS BELOW 12,000 FEET WITH NO 
SIGNIFICANT WEATHER AND/OR OBSTRUCTIONS TO VISIBILITY.

WAZ507-509-555>559-211800-
SEATTLE, TACOMA, EVERETT, AND VICINITY
  
CITY           SKY/WX    TMP DP  RH WIND       PRES   REMARKS
EVERETT        CLOUDY    62  50  64 SE15      29.98F                  
BOEING FIELD   CLOUDY    64  50  60 SE9       29.98F                  
RENTON         CLOUDY    65  52  62 SE6       29.97F                  
SEATAC AIRPORT CLOUDY    64  50  60 SE8       29.99F                  
JBLM-MCCHORD   NOT AVBL                                               
PUYALLUP       FAIR      66  52  59 CALM      29.99F                  
BREMERTON      CLOUDY    60  52  74 VRB7      29.98F                  
JBLM-FT LEWIS  NOT AVBL                                               
TACOMA NARROWS CLOUDY    59  49  69 S5        29.99S                  
$$
 
WAZ001-503-506-510-514-515-211800-
NORTH INTERIOR
  
CITY           SKY/WX    TMP DP  RH WIND       PRES   REMARKS
BELLINGHAM     CLOUDY    58  55  90 CALM      29.96S                  
FRIDAY HARBOR  CLOUDY    61  52  72 SE8       29.96F                  
EASTSOUND      CLOUDY    63  54  72 S10       29.93F                  
PORT ANGELES   PTSUNNY   63  54  72 SE7       29.95S                  
EDIZ HOOK      FAIR      54  51  90 SE6       29.95S                  
PORT TOWNSEND  FAIR      59  55  88 SE5       29.95F                  
NAS WHIDBEY    CLOUDY    65  51  60 SE9G18    29.99F                  
ARLINGTON      CLOUDY    64  52  64 SE9       29.97F                  
BURLINGTON     CLOUDY    61  54  77 NE3       29.97S                  
$$
 
WAZ020-022-039-040-504-511-512-211800-
SOUTHWEST INTERIOR
  
CITY           SKY/WX    TMP DP  RH WIND       PRES   REMARKS
SHELTON        PTSUNNY   62  53  72 SW8       29.96F                  
OLYMPIA        CLOUDY    58  49  72 S6        29.99F                  
CHEHALIS       FAIR      57  52  82 CALM      30.00F                  
KELSO          NOT AVBL                                               
VANCOUVER      MOSUNNY   58  52  80 CALM      30.01F                  
SCAPPOOSE, OR  MOSUNNY   58  51  78 CALM      30.01F                  
PORTLAND, OR   PTSUNNY   59  51  75 CALM      30.01F                  
$$
 
WAZ021-516-517-211800-
WASHINGTON COAST
  
CITY           SKY/WX    TMP DP  RH WIND       PRES   REMARKS
FORKS          CLOUDY    59  58  96 VRB5      29.94F                  
HOQUIAM        CLOUDY    61  56  83 E5        29.98F                  
ASTORIA, OR    CLOUDY    56  53  90 CALM      29.99F                  
$$
 
WAZ019-023-024-040-567>569-211800-
CASCADE MOUNTAINS AND COLUMBIA GORGE
  
CITY           SKY/WX    TMP DP  RH WIND       PRES   REMARKS
STAMPEDE PASS  MOSUNNY   51  46  83 CALM      30.04F                  
TROUTDALE, OR  MOSUNNY   59  50  72 CALM      30.01F                  
HOOD RIVER, OR MOSUNNY   57  45  62 CALM      30.01F                  
THE DALLES, OR SUNNY     59  45  59 N3        30.01F                  
$$

WAZ026-027-041>044-520-521-211800-
EAST SLOPES
  
CITY           SKY/WX    TMP DP  RH WIND       PRES   REMARKS
OMAK           PTSUNNY   58  49  72 N9        30.01F                  
WENATCHEE      SUNNY     60  46  59 VRB3      29.99S                  
ELLENSBURG     SUNNY     59  46  62 CALM      30.00F                  
YAKIMA         SUNNY     59  44  57 CALM      30.01F                  
SUNNYSIDE ARPT MOSUNNY   58  46  63 CALM      30.01F                  
YAKIMA TC      NOT AVBL                                               
$$

WAZ028-034-035-211800-
COLUMBIA BASIN
  
CITY           SKY/WX    TMP DP  RH WIND       PRES   REMARKS
EPHRATA        MOSUNNY   60  40  47 VRB5      30.01S                  
MOSES LAKE     MOSUNNY   60  41  49 S5        30.01F                  
PASCO          SUNNY     65  45  48 CALM      30.01F                  
RICHLAND ARPT  MOSUNNY   65  48  53 CALM      30.01S                  
HERMISTON, OR  MOSUNNY   61  40  45 VRB3      30.01S                  
$$

WAZ036>038-211800-
NORTHEAST WASHINGTON
  
CITY           SKY/WX    TMP DP  RH WIND       PRES   REMARKS
SPOKANE GEIGER PTSUNNY   61  36  39 S12       30.04F                  
SPOKANE FELTS  SUNNY     62  40  44 CALM      30.05S                  
FAIRCHILD AFB  NOT AVBL                                               
COEURDALENE,ID SUNNY     61  40  45 S12       30.06F                  
DEER PARK      MOSUNNY   60  37  42 S6        30.05F                  
$$

WAZ029>033-211800-
SOUTHEAST WASHINGTON
  
CITY           SKY/WX    TMP DP  RH WIND       PRES   REMARKS
PULLMAN        SUNNY     62  37  39 E12       30.08S                  
LEWISTON, ID   SUNNY     61  41  47 NE6       30.06F                  
WALLA WALLA    SUNNY     68  34  28 VRB3      30.01F                  
PENDLETON, OR  SUNNY     65  31  28 CALM      30.01S                  
$$